TimeMDT,TemperatureF,Dew PointF,Humidity,Sea Level PressureIn,VisibilityMPH,Wind Direction,Wind SpeedMPH,Gust SpeedMPH,PrecipitationIn,Events,Conditions,WindDirDegrees,DateUTC
12:16 AM,59.0,51.8,77,30.41,10.0,Calm,Calm,-,N/A,,Clear,0,2013-07-19 06:16:00
12:36 AM,59.0,51.8,77,30.41,10.0,Calm,Calm,-,N/A,,Clear,0,2013-07-19 06:36:00
12:56 AM,59.0,51.8,77,30.41,10.0,Calm,Calm,-,N/A,,Clear,0,2013-07-19 06:56:00
1:16 AM,59.0,51.8,77,30.40,10.0,Calm,Calm,-,N/A,,Clear,0,2013-07-19 07:16:00
1:36 AM,59.0,51.8,77,30.40,10.0,Calm,Calm,-,N/A,,Clear,0,2013-07-19 07:36:00
1:56 AM,59.0,53.6,82,30.40,10.0,Calm,Calm,-,N/A,,Clear,0,2013-07-19 07:56:00
2:16 AM,57.2,51.8,82,30.40,10.0,Calm,Calm,-,N/A,,Clear,0,2013-07-19 08:16:00
2:36 AM,55.4,51.8,88,30.39,10.0,Calm,Calm,-,N/A,,Clear,0,2013-07-19 08:36:00
2:56 AM,55.4,51.8,88,30.39,10.0,Calm,Calm,-,N/A,,Clear,0,2013-07-19 08:56:00
3:16 AM,55.4,51.8,88,30.38,10.0,Calm,Calm,-,N/A,,Clear,0,2013-07-19 09:16:00
3:36 AM,55.4,50.0,82,30.38,10.0,Calm,Calm,-,N/A,,Clear,0,2013-07-19 09:36:00
3:56 AM,55.4,51.8,88,30.38,10.0,Calm,Calm,-,N/A,,Clear,0,2013-07-19 09:56:00
4:16 AM,53.6,50.0,88,30.38,10.0,Calm,Calm,-,N/A,,Clear,0,2013-07-19 10:16:00
4:36 AM,53.6,51.8,94,30.38,10.0,Calm,Calm,-,N/A,,Clear,0,2013-07-19 10:36:00
4:56 AM,53.6,50.0,88,30.38,10.0,Calm,Calm,-,N/A,,Clear,0,2013-07-19 10:56:00
5:15 AM,53.6,50.0,88,30.39,10.0,Calm,Calm,-,N/A,,Clear,0,2013-07-19 11:15:00
5:36 AM,53.6,50.0,88,30.39,10.0,Calm,Calm,-,N/A,,Clear,0,2013-07-19 11:36:00
5:55 AM,53.6,50.0,88,30.39,10.0,Calm,Calm,-,N/A,,Clear,0,2013-07-19 11:55:00
6:16 AM,53.6,50.0,88,30.39,10.0,Calm,Calm,-,N/A,,Clear,0,2013-07-19 12:16:00
6:36 AM,53.6,50.0,88,30.39,10.0,Calm,Calm,-,N/A,,Clear,0,2013-07-19 12:36:00
6:56 AM,53.6,50.0,88,30.40,10.0,Calm,Calm,-,N/A,,Clear,0,2013-07-19 12:56:00
7:15 AM,53.6,50.0,88,30.40,10.0,Calm,Calm,-,N/A,,Clear,0,2013-07-19 13:15:00
7:36 AM,55.4,50.0,82,30.40,10.0,Calm,Calm,-,N/A,,Clear,0,2013-07-19 13:36:00
7:56 AM,57.2,50.0,77,30.41,10.0,Calm,Calm,-,N/A,,Clear,0,2013-07-19 13:56:00
8:16 AM,59.0,50.0,72,30.41,10.0,Calm,Calm,-,N/A,,Clear,0,2013-07-19 14:16:00
8:36 AM,60.8,50.0,68,30.41,10.0,Calm,Calm,-,N/A,,Clear,0,2013-07-19 14:36:00
8:56 AM,60.8,50.0,68,30.41,10.0,Calm,Calm,-,N/A,,Clear,0,2013-07-19 14:56:00
9:16 AM,62.6,50.0,63,30.40,10.0,Calm,Calm,-,N/A,,Clear,0,2013-07-19 15:16:00
9:36 AM,64.4,50.0,59,30.40,10.0,Calm,Calm,-,N/A,,Clear,0,2013-07-19 15:36:00
9:56 AM,68.0,51.8,56,30.39,10.0,Calm,Calm,-,N/A,,Clear,0,2013-07-19 15:56:00
10:16 AM,69.8,50.0,49,30.38,10.0,Calm,Calm,-,N/A,,Clear,0,2013-07-19 16:16:00
10:36 AM,69.8,46.4,43,30.37,10.0,NNW,4.6,-,N/A,,Clear,340,2013-07-19 16:36:00
10:56 AM,71.6,48.2,43,30.37,10.0,Calm,Calm,-,N/A,,Clear,0,2013-07-19 16:56:00
11:16 AM,73.4,46.4,38,30.36,10.0,Calm,Calm,-,N/A,,Clear,0,2013-07-19 17:16:00
11:36 AM,73.4,44.6,36,30.36,10.0,Calm,Calm,-,N/A,,Clear,0,2013-07-19 17:36:00
11:56 AM,77.0,42.8,29,30.34,10.0,NNW,3.5,-,N/A,,Clear,340,2013-07-19 17:56:00
12:16 PM,77.0,39.2,26,30.33,10.0,Calm,Calm,-,N/A,,Clear,0,2013-07-19 18:16:00
12:36 PM,80.6,35.6,20,30.32,10.0,WSW,4.6,-,N/A,,Clear,240,2013-07-19 18:36:00
12:56 PM,80.6,30.2,16,30.32,10.0,SE,6.9,-,N/A,,Clear,140,2013-07-19 18:56:00
1:16 PM,82.4,32.0,16,30.31,10.0,SSE,6.9,-,N/A,,Clear,150,2013-07-19 19:16:00
1:36 PM,82.4,32.0,16,30.31,10.0,South,5.8,-,N/A,,Clear,170,2013-07-19 19:36:00
1:56 PM,82.4,32.0,16,30.29,10.0,Calm,Calm,-,N/A,,Clear,0,2013-07-19 19:56:00
2:16 PM,86.0,33.8,15,30.28,10.0,Calm,Calm,-,N/A,,Clear,0,2013-07-19 20:16:00
2:36 PM,86.0,33.8,15,30.28,10.0,SE,3.5,-,N/A,,Scattered Clouds,140,2013-07-19 20:36:00
2:56 PM,87.8,30.2,13,30.27,10.0,NNW,6.9,-,N/A,,Scattered Clouds,330,2013-07-19 20:56:00
3:16 PM,87.8,35.6,16,30.26,10.0,SE,11.5,16.1,N/A,,Scattered Clouds,130,2013-07-19 21:16:00
3:36 PM,86.0,33.8,15,30.24,10.0,ESE,15.0,23.0,N/A,,Scattered Clouds,110,2013-07-19 21:36:00
3:56 PM,87.8,33.8,15,30.24,10.0,East,12.7,-,N/A,,Clear,100,2013-07-19 21:56:00
4:16 PM,86.0,33.8,15,30.24,10.0,East,9.2,18.4,N/A,,Clear,90,2013-07-19 22:16:00
4:36 PM,86.0,32.0,14,30.23,10.0,East,5.8,-,N/A,,Clear,100,2013-07-19 22:36:00
4:56 PM,87.8,32.0,14,30.22,10.0,ESE,9.2,-,N/A,,Clear,120,2013-07-19 22:56:00
5:16 PM,87.8,32.0,14,30.21,10.0,ESE,9.2,-,N/A,,Clear,110,2013-07-19 23:16:00
5:36 PM,89.6,32.0,13,30.21,10.0,East,12.7,16.1,N/A,,Scattered Clouds,100,2013-07-19 23:36:00
5:56 PM,86.0,30.2,13,30.21,10.0,East,10.4,-,N/A,,Scattered Clouds,100,2013-07-19 23:56:00
6:16 PM,82.4,32.0,16,30.21,10.0,East,8.1,-,N/A,,Scattered Clouds,90,2013-07-20 00:16:00
6:36 PM,80.6,33.8,18,30.21,10.0,East,9.2,-,N/A,,Scattered Clouds,80,2013-07-20 00:36:00
6:56 PM,82.4,33.8,17,30.21,10.0,East,10.4,-,N/A,,Mostly Cloudy,80,2013-07-20 00:56:00
7:15 PM,80.6,33.8,18,30.22,10.0,ENE,12.7,19.6,N/A,Thunderstorm,Mostly Cloudy,70,2013-07-20 01:15:00
7:36 PM,77.0,35.6,22,30.22,10.0,East,10.4,-,N/A,,Scattered Clouds,80,2013-07-20 01:36:00
7:56 PM,77.0,41.0,28,30.24,10.0,East,10.4,-,N/A,,Clear,80,2013-07-20 01:56:00
8:16 PM,73.4,44.6,36,30.24,10.0,East,13.8,-,N/A,,Scattered Clouds,100,2013-07-20 02:16:00
8:36 PM,71.6,44.6,38,30.25,10.0,ESE,16.1,-,N/A,,Clear,110,2013-07-20 02:36:00
8:56 PM,71.6,46.4,41,30.26,10.0,East,10.4,-,N/A,,Mostly Cloudy,100,2013-07-20 02:56:00
9:15 PM,71.6,44.6,38,30.28,10.0,East,13.8,18.4,N/A,,Overcast,90,2013-07-20 03:15:00
9:36 PM,69.8,44.6,40,30.29,10.0,East,15.0,-,N/A,Thunderstorm,Mostly Cloudy,80,2013-07-20 03:36:00
9:55 PM,69.8,42.8,38,30.30,10.0,East,16.1,23.0,N/A,Thunderstorm,Clear,80,2013-07-20 03:55:00
10:16 PM,66.2,42.8,43,30.31,10.0,East,12.7,20.7,N/A,,Clear,90,2013-07-20 04:16:00
10:36 PM,64.4,41.0,42,30.31,10.0,East,6.9,-,N/A,,Clear,100,2013-07-20 04:36:00
10:56 PM,62.6,41.0,45,30.30,10.0,East,8.1,-,N/A,,Clear,100,2013-07-20 04:56:00
11:16 PM,60.8,41.0,48,30.30,10.0,Calm,Calm,-,N/A,,Clear,0,2013-07-20 05:16:00
11:36 PM,59.0,44.6,59,30.30,10.0,Calm,Calm,-,N/A,,Clear,0,2013-07-20 05:36:00
11:56 PM,59.0,42.8,55,30.29,10.0,Calm,Calm,-,N/A,,Clear,0,2013-07-20 05:56:00